星链-3781 (STARLINK-3781 )

导读

STARLINK-3781是美国SpaceX公司星链星座的卫星,于2022年4月21日发射,属于星链第二代低轨卫星批次,运行在近地轨道,为全球提供高速低延迟宽带互联网服务,尤其覆盖传统网络难以触及的偏远区域。它搭载相控阵天线与激光星间链路,支持更高效的数据传输与星座组网,助力星链实现全球连续覆盖,推动天地一体化通信网络建设,为用户提供稳定的高速接入体验。

基本信息
目录编号:
52272
目录名称:
STARLINK-3781
国际标识:
2022-041M
轨道中心:
EARTH
卫星名称:
星链-3781
卫星全名:
星链-3781 (STARLINK-3781 )
卫星状态:
在轨 (已飞行1518 天)
发射日期:
2022-04-21 UTC
国别 :
美国 (US)
星等 :
--
轨道信息
数据来源 国际轨道数据
星历时间: 2026-06-17T05:51:57+0800
17小时前
查看轨道信息
半长轴: 6917.914km
偏心率: 0.0001284
轨道倾角: 53.160°
近地点辐角 88.231°
升交点赤经 23.643°
平近点角 271.882°
近地点: 538.888km
远地点: 540.666km
周期: 95.438分钟
每日圈数: 15.088293
详细信息
固有亮度:
5
最大亮度:
2.5
卫星平台:
Starlink v1.5
覆盖范围:
全球
运营商:
太空探索技术公司
运营商所在国:
美国
制造商(研发单位):
太空探索技术公司
制造商所在国:
美国
使用方式:
暂无
卫星简介
星链(Starlink)计划是由太空探索技术公司(SpaceX)提出的一个巨型低轨卫星互联网星座项目,计划在2019年至2024年间在太空搭建由约1.2万颗卫星组成的“星链”网络,其中1584颗将部署在地球上空550千米处的近地轨道,并从2020年开始工作。该卫星仍在工作。
2D轨道图
3D轨道图
轨道高度分析图
轨道倾角分析图
轨道综合分析图
查看轨道综合分析图